Regional Weather Roundup
Issued by NWS

Home | Current Version | Previous Version | Graphics & Text | Print | Product List | Glossary On
Versions: 1 2 3 4 5 6 7 8 9 10 11 12 13 14 15 16 17 18 19 20 21 22 23 24 25 26 27 28 29 30 31 32 33 34 35 36 37 38 39 40 41 42 43 44 45 46 47 48 49 50
386
ASUS44 KJAN 231103
RWRMS

MISSISSIPPI HOURLY WEATHER ROUNDUP
NATIONAL WEATHER SERVICE JACKSON MS
600 AM CDT WED JUL 23 2014

NOTE: "FAIR: INDICATES FEW OR NO CLOUDS BELOW 12,000 FEET WITH NO
SIGNIFICANT WEATHER AND/OR OBSTRUCTIONS TO VISIBILITY.

MSZ001>002-007>008-010>013-018>021-025>028-034>036-231200-
NORTHWEST MISSISSIPPI

CITY           SKY/WX    TMP DP  RH WIND       PRES   REMARKS
CLARKSDALE     FAIR      72  72 100 CALM      30.06S
CLEVELAND      FAIR      72  72 100 CALM      30.05S FOG
GREENWOOD      PTCLDY    72  70  93 E3        30.06R
GREENVILLE     MOCLDY    73  71  93 NW6       30.05R
GRENADA        FAIR      68  68 100 NW3       30.06S
OLIVE BRANCH   CLEAR     72 N/A N/A CALM      30.06R
OXFORD         FAIR      70  70 100 CALM      30.08R
TUNICA         SUNNY     72  70  94 NW3       30.06S FOG
$$

MSZ003>006-009-014>017-022>024-029>033-037>039-231200-
NORTHEAST MISSISSIPPI

CITY           SKY/WX    TMP DP  RH WIND       PRES   REMARKS
BELMONT        FAIR      71  70  98 CALM      30.08S FOG
COLUMBUS AFB   CLOUDY    73  73 100 CALM      30.07R
CORINTH        FOG       70  68  94 S5        30.06S VSB 1/2
GOLDN TRIANGLE CLEAR     72  70  94 CALM      30.07S
STARKVILLE     FAIR      70  70 100 CALM      30.06S FOG
TUPELO         MOCLDY    73  71  93 CALM      30.06R
$$

MSZ040-058-231200-
CENTRAL MISSISSIPPI

CITY           SKY/WX    TMP DP  RH WIND       PRES   REMARKS
JACKSON INTL   MOCLDY    72  71  97 CALM      30.06R
JACKSON HAWKNS MOCLDY    74  70  87 CALM      30.07R
MERIDIAN KEY   PTCLDY    67  66  97 CALM      30.07R
MERIDIAN NAS   FOG       70  69  97 CALM      30.08R VSB 3/4
RAYMOND        FAIR      72  66  83 CALM      30.07R HAZE
VICKSBURG      PTCLDY    70  68  93 CALM      30.06R FOG
$$

MSZ059>079-231200-
SOUTH MISSISSIPPI

CITY           SKY/WX    TMP DP  RH WIND       PRES   REMARKS
BROOKHAVEN     FAIR      66  66 100 CALM      30.09R FOG
COLUMBIA       FOG       66  66 100 CALM      30.05R VSB<1/4
HATTIESBURG    FOG       68  68 100 CALM      30.07R VSB 3/4
MCCOMB         FOG       67  66  97 CALM      30.06R VSB 1/4
NATCHEZ        PTCLDY    72  68  88 CALM      30.07R
PINE BELT      MOCLDY    66  63  88 CALM      30.07R
$$

MSZ080>082-231200-
COASTAL MISSISSIPPI

CITY           SKY/WX    TMP DP  RH WIND       PRES   REMARKS
BILOXI         CLEAR     70  69  97 N7        30.03R
PASCAGOULA     CLEAR     70  69  97 CALM      30.04R
GULFPORT       CLEAR     72  68  87 N3        30.02R
$$



USA.gov is the U.S. government's official web portal to all federal, state and local government web resources and services.